TimeEDT,TemperatureF,Dew PointF,Humidity,Sea Level PressureIn,VisibilityMPH,Wind Direction,Wind SpeedMPH,Gust SpeedMPH,PrecipitationIn,Events,Conditions,WindDirDegrees,DateUTC
12:54 AM,64.0,55.9,75,29.88,10.0,NNW,3.5,-,0.00,,Scattered Clouds,330,2012-07-03 04:54:00
1:54 AM,62.1,57.0,84,29.87,10.0,Calm,Calm,-,N/A,,Clear,0,2012-07-03 05:54:00
2:54 AM,61.0,55.9,83,29.87,10.0,Variable,3.5,-,0.00,,Clear,0,2012-07-03 06:54:00
3:54 AM,60.1,55.9,86,29.87,10.0,Calm,Calm,-,N/A,,Clear,0,2012-07-03 07:54:00
4:54 AM,55.9,55.0,97,29.88,10.0,Calm,Calm,-,N/A,,Clear,0,2012-07-03 08:54:00
5:54 AM,57.9,55.9,93,29.90,10.0,Calm,Calm,-,N/A,,Clear,0,2012-07-03 09:54:00
6:54 AM,64.0,57.9,80,29.91,10.0,Calm,Calm,-,N/A,,Clear,0,2012-07-03 10:54:00
7:54 AM,68.0,57.9,70,29.90,10.0,Variable,4.6,-,N/A,,Clear,0,2012-07-03 11:54:00
8:54 AM,71.1,57.0,61,29.91,10.0,Calm,Calm,-,N/A,,Clear,0,2012-07-03 12:54:00
9:54 AM,73.9,55.0,52,29.90,10.0,Variable,3.5,-,N/A,,Scattered Clouds,0,2012-07-03 13:54:00
10:54 AM,75.0,55.0,50,29.90,10.0,NNE,6.9,-,N/A,,Mostly Cloudy,30,2012-07-03 14:54:00
11:54 AM,77.0,52.0,42,29.88,10.0,NNW,11.5,16.1,N/A,,Partly Cloudy,340,2012-07-03 15:54:00
12:54 PM,79.0,54.0,42,29.88,10.0,Variable,5.8,-,N/A,,Mostly Cloudy,0,2012-07-03 16:54:00
1:54 PM,80.1,53.1,39,29.89,10.0,Calm,Calm,-,N/A,,Mostly Cloudy,0,2012-07-03 17:54:00
2:54 PM,81.0,52.0,36,29.87,10.0,NW,4.6,-,N/A,,Scattered Clouds,310,2012-07-03 18:54:00
3:54 PM,79.0,53.1,40,29.87,10.0,NNE,4.6,-,N/A,,Mostly Cloudy,30,2012-07-03 19:54:00
4:54 PM,81.0,50.0,34,29.86,10.0,NW,6.9,-,0.00,,Scattered Clouds,310,2012-07-03 20:54:00
5:54 PM,79.0,48.0,34,29.85,10.0,WNW,5.8,-,N/A,,Clear,300,2012-07-03 21:54:00
6:54 PM,75.0,54.0,48,29.85,10.0,Calm,Calm,-,N/A,,Clear,0,2012-07-03 22:54:00
7:54 PM,66.9,59.0,76,29.85,10.0,Calm,Calm,-,0.00,,Clear,0,2012-07-03 23:54:00
8:54 PM,63.0,60.1,90,29.86,10.0,Calm,Calm,-,N/A,,Clear,0,2012-07-04 00:54:00
9:54 PM,60.1,59.0,96,29.86,10.0,Calm,Calm,-,N/A,,Clear,0,2012-07-04 01:54:00
10:54 PM,59.0,57.0,93,29.86,10.0,Calm,Calm,-,N/A,,Clear,0,2012-07-04 02:54:00
11:54 PM,59.0,55.9,90,29.86,10.0,Calm,Calm,-,N/A,,Clear,0,2012-07-04 03:54:00